This demonstration page uses our WeatherBlox Daily Observations layout. Learn more.

Left ArrowRight Arrow

31.84235, -102.49876

Hourly Observations for November 30, 2022

Temp ( °F °C ) Dew Point ( °F °C ) Humidity (%) Winds ( mph kmh ) Pressure ( in mb ) Visibility ( mi km ) Precip ( " mm )
12:53 am 00:53 Clear 37 2.8 28 -2.2 70 70 ENE 16 26 30.13 1020 10 16 0.00 0.00
1:53 am 01:53 Clear 34 1.1 28 -2.2 79 79 NE 14 22 30.15 1021 10 16 0.00 0.00
2:53 am 02:53 Clear 33 0.6 27 -2.8 78 78 ENE 13 20 30.18 1022 10 16 0.00 0.00
3:53 am 03:53 Clear 31 -0.6 25 -3.9 78 78 NE 15 24 30.19 1022 10 16 0.00 0.00
4:53 am 04:53 Clear 30 -1.1 25 -3.9 81 81 NE 12 19 30.21 1023 10 16 0.00 0.00
5:53 am 05:53 Clear 29 -1.7 22 -5.6 75 75 NNE 8 13 30.27 1025 10 16 0.00 0.00
6:53 am 06:53 Clear 28 -2.2 22 -5.6 77 77 NNE 5 7 30.32 1027 10 16 0.00 0.00
7:53 am 07:53 Sunny 28 -2.2 23 -5 81 81 NNE 9 15 30.34 1028 10 16 0.00 0.00
8:53 am 08:53 Sunny 31 -0.6 22 -5.6 69 69 NE 10 17 30.37 1028 10 16 0.00 0.00
9:53 am 09:53 Sunny 34 1.1 22 -5.6 61 61 NNE 9 15 30.39 1029 10 16 0.00 0.00
10:53 am 10:53 Sunny 36 2.2 22 -5.6 56 56 ENE 9 15 30.40 1030 10 16 0.00 0.00
11:53 am 11:53 Sunny 38 3.3 22 -5.6 52 52 E 9 15 30.40 1029 10 16 0.00 0.00
12:53 pm 12:53 Sunny 41 5 21 -6.1 44 44 ESE 8 13 30.37 1028 10 16 0.00 0.00
1:53 pm 13:53 Sunny 43 6.1 22 -5.6 43 43 E 9 15 30.32 1027 10 16 0.00 0.00
2:53 pm 14:53 Sunny 44 6.7 22 -5.6 41 41 E 10 17 30.31 1026 10 16 0.00 0.00
3:53 pm 15:53 Sunny 46 7.8 22 -5.6 38 38 ESE 12 19 30.29 1026 10 16 0.00 0.00
4:53 pm 16:53 Sunny 45 7.2 23 -5 41 41 E 12 19 30.28 1025 10 16 0.00 0.00
5:53 pm 17:53 Clear 43 6.1 24 -4.4 47 47 E 8 13 30.29 1026 10 16 0.00 0.00
6:53 pm 18:53 Clear 41 5 24 -4.4 51 51 ESE 9 15 30.30 1026 10 16 0.00 0.00
7:53 pm 19:53 Clear 41 5 23 -5 48 48 ESE 9 15 30.32 1027 10 16 0.00 0.00
8:53 pm 20:53 Clear 40 4.4 24 -4.4 53 53 SE 12 19 30.32 1027 10 16 0.00 0.00
9:53 pm 21:53 Clear 38 3.3 24 -4.4 57 57 SE 8 13 30.32 1027 10 16 0.00 0.00
10:53 pm 22:53 Clear 38 3.3 24 -4.4 57 57 ESE 7 11 30.32 1027 10 16 0.00 0.00
11:25 pm 23:25 Mostly Cloudy 38 3.3 25 -3.9 59 59 ESE 10 17 30.38 1029 10 16 0.00 0.00
11:53 pm 23:53 Partly Cloudy 39 3.9 23 -5 52 52 SE 12 19 30.29 1026 10 16 0.00 0.00

Powered by AerisWeather